period_start,C,m1,H,J0,J1,J2,J3,J4,J5,JA,JB,JC,JD,JJ,JK,JN,#
2016-05-21 00:01:27,0.12,1.75,0.00,24.63,29.21,32.05,14.51,48.91,1015.17,2026.79,2788.82,2676.48,3019.63,600.37,592.17,43.24,0000 0000 0000 0000 000000
2016-05-21 00:06:28,0.09,1.76,0.00,24.64,29.21,32.06,14.39,48.92,1015.16,2026.70,2786.72,2675.17,3018.19,599.89,591.85,43.30,0000 0000 0000 0000 000000
2016-05-21 00:11:29,0.08,1.76,0.00,24.67,29.22,32.06,14.37,48.80,1015.16,2026.80,2785.45,2674.19,3017.18,599.75,591.61,43.35,0000 0000 0000 0000 000000
2016-05-21 00:16:31,0.08,1.77,0.00,24.70,29.22,32.03,14.42,49.26,1015.17,2026.71,2783.93,2673.43,3016.35,600.31,592.15,43.40,0000 0000 0000 0000 000000
2016-05-21 00:21:32,0.08,1.77,0.00,24.74,29.22,32.07,14.55,49.12,1015.17,2026.82,2782.26,2672.26,3015.13,600.77,592.36,43.45,0000 0000 0000 0000 000000
2016-05-21 00:26:33,0.05,1.78,0.00,24.79,29.22,32.05,14.49,48.99,1015.17,2026.87,2781.30,2671.85,3014.43,600.22,591.84,43.50,0000 0000 0000 0000 000000
2016-05-21 00:31:34,0.05,1.78,0.00,24.79,29.22,32.06,14.46,48.68,1015.21,2026.94,2780.38,2671.07,3013.96,600.09,591.71,43.55,0000 0000 0000 0000 000000
2016-05-21 00:36:36,0.05,1.78,0.00,24.82,29.22,32.09,14.53,48.97,1015.33,2026.92,2779.50,2670.55,3013.16,600.39,591.97,43.60,0000 0000 0000 0000 000000
2016-05-21 00:41:37,0.02,1.78,0.00,24.85,29.24,32.11,14.37,48.69,1015.36,2026.87,2778.88,2670.00,3012.70,599.65,591.25,43.65,0000 0000 0000 0000 000000
2016-05-21 00:46:39,0.06,1.79,0.00,24.87,29.25,32.11,14.49,48.49,1015.44,2026.84,2778.01,2669.29,3012.01,600.26,591.87,43.70,0000 0000 0000 0000 000000
2016-05-21 00:51:40,0.04,1.79,0.00,24.88,29.26,32.12,14.45,48.70,1015.35,2026.83,2777.15,2668.95,3011.42,599.95,591.51,43.75,0000 0000 0000 0000 000000
2016-05-21 00:56:41,0.03,1.79,0.00,24.91,29.27,32.12,14.43,48.98,1015.24,2026.62,2776.33,2668.15,3010.80,599.80,591.31,43.80,0000 0000 0000 0000 000000
2016-05-21 01:01:42,0.02,1.79,0.00,24.93,29.30,32.14,14.35,48.86,1015.21,2026.38,2775.42,2667.68,3010.05,599.87,591.22,43.85,0000 0000 0000 0000 000000
2016-05-21 01:06:43,0.04,1.79,0.00,24.97,29.31,32.15,14.45,48.83,1015.21,2026.34,2774.59,2666.95,3009.49,600.02,591.30,43.90,0000 0000 0000 0000 000000
2016-05-21 01:11:44,0.11,1.80,0.00,25.00,29.32,32.16,14.45,48.85,1015.24,2026.10,2772.88,2665.76,3008.18,599.76,591.00,43.95,0000 0000 0000 0000 000000
2016-05-21 01:16:46,0.15,1.80,0.00,25.02,29.34,32.17,14.36,48.84,1015.22,2026.02,2769.96,2663.79,3006.16,599.90,591.09,44.00,0000 0000 0000 0000 000000
2016-05-21 01:21:47,0.15,1.81,0.00,25.04,29.36,32.20,14.37,48.75,1015.18,2026.01,2767.56,2662.06,3004.25,599.66,590.83,44.05,0000 0000 0000 0000 000000
2016-05-21 01:26:49,0.18,1.82,0.00,25.07,29.38,32.23,14.41,48.87,1015.19,2026.00,2764.31,2659.87,3001.82,600.25,591.30,44.10,0000 0000 0000 0000 000000
2016-05-21 01:31:50,0.18,1.83,0.00,25.10,29.40,32.23,14.49,48.99,1015.17,2026.00,2761.04,2657.57,2999.28,600.09,591.09,44.15,0000 0000 0000 0000 000000
2016-05-21 01:36:51,0.11,1.84,0.00,25.14,29.42,32.24,14.42,49.00,1015.18,2026.00,2758.63,2656.02,2997.36,600.04,591.01,44.21,0000 0000 0000 0000 000000
2016-05-21 01:41:52,0.06,1.84,0.00,25.17,29.45,32.26,14.36,48.98,1015.17,2026.00,2757.61,2655.11,2996.64,599.81,590.68,44.26,0000 0000 0000 0000 000000
2016-05-21 01:46:53,0.03,1.84,0.00,25.20,29.47,32.28,14.48,48.87,1015.18,2025.98,2756.92,2654.53,2996.01,600.18,591.01,44.31,0000 0000 0000 0000 000000
2016-05-21 01:51:55,0.05,1.85,0.00,25.23,29.50,32.30,14.37,48.88,1015.18,2025.97,2755.97,2653.92,2995.30,599.81,590.52,44.36,0000 0000 0000 0000 000000
2016-05-21 01:56:56,0.05,1.85,0.00,25.27,29.52,32.33,14.37,48.67,1015.18,2025.85,2754.86,2653.04,2994.48,599.76,590.39,44.41,0000 0000 0000 0000 000000
2016-05-21 02:01:58,0.06,1.85,0.00,25.31,29.55,32.35,14.34,48.66,1015.17,2025.65,2753.63,2652.12,2993.36,599.71,590.35,44.46,0000 0000 0000 0000 000000
2016-05-21 02:06:59,0.02,1.85,0.00,25.34,29.57,32.38,14.45,48.73,1015.19,2025.32,2752.60,2651.42,2992.57,599.92,590.52,44.51,0000 0000 0000 0000 000000
2016-05-21 02:12:00,0.05,1.85,0.00,25.37,29.60,32.40,14.42,48.77,1015.20,2025.07,2751.54,2650.60,2991.70,600.24,590.66,44.56,0000 0000 0000 0000 000000
2016-05-21 02:17:01,0.07,1.86,0.00,25.41,29.63,32.42,14.46,48.96,1015.29,2025.02,2750.31,2649.60,2990.56,600.20,590.50,44.61,0000 0000 0000 0000 000000
2016-05-21 02:22:02,0.08,1.86,0.00,25.44,29.66,32.44,14.42,48.96,1015.42,2025.00,2748.78,2648.58,2989.42,599.88,590.30,44.66,0000 0000 0000 0000 000000
2016-05-21 02:27:03,0.08,1.87,0.00,25.47,29.68,32.47,14.39,48.94,1015.57,2025.00,2747.25,2647.47,2988.15,600.08,590.64,44.71,0000 0000 0000 0000 000000
2016-05-21 02:32:04,0.10,1.87,0.00,25.52,29.71,32.50,14.35,49.10,1015.56,2024.98,2745.54,2646.18,2986.74,600.26,590.49,44.76,0000 0000 0000 0000 000000
2016-05-21 02:37:05,0.09,1.88,0.00,25.57,29.74,32.53,14.37,48.74,1015.58,2024.94,2743.72,2644.89,2985.43,600.14,590.44,44.81,0000 0000 0000 0000 000000
2016-05-21 02:42:07,0.10,1.88,0.00,25.61,29.76,32.56,14.44,48.85,1015.59,2024.74,2741.84,2643.56,2983.89,600.19,590.41,44.86,0000 0000 0000 0000 000000
2016-05-21 02:47:08,0.06,1.88,0.00,25.65,29.78,32.59,14.36,48.81,1015.57,2024.38,2740.01,2642.29,2982.48,599.80,589.98,44.91,0000 0000 0000 0000 000000
2016-05-21 02:52:09,0.09,1.89,0.00,25.69,29.81,32.61,14.40,48.83,1015.57,2024.13,2738.11,2640.87,2980.93,600.10,590.15,44.96,0000 0000 0000 0000 000000
2016-05-21 02:57:10,0.10,1.89,0.00,25.72,29.84,32.64,14.41,48.77,1015.55,2024.02,2736.30,2639.55,2979.43,599.95,589.94,45.01,0000 0000 0000 0000 000000
2016-05-21 03:02:12,0.11,1.90,0.00,25.77,29.87,32.69,14.34,48.77,1015.58,2024.00,2734.24,2638.03,2977.77,599.68,589.86,45.06,0000 0000 0000 0000 000000
2016-05-21 03:07:13,0.12,1.91,0.00,25.81,29.90,32.71,14.28,48.70,1015.57,2024.00,2732.26,2636.60,2976.17,599.71,589.63,45.11,0000 0000 0000 0000 000000
2016-05-21 03:12:15,0.11,1.91,0.00,25.85,29.93,32.74,14.36,48.86,1015.49,2023.99,2730.29,2635.09,2974.50,600.06,589.75,45.17,0000 0000 0000 0000 000000
2016-05-21 03:17:16,0.12,1.92,0.00,25.90,29.96,32.76,14.37,48.79,1015.47,2023.96,2728.20,2633.56,2972.77,600.18,589.89,45.22,0000 0000 0000 0000 000000
2016-05-21 03:22:18,0.09,1.93,0.00,25.94,30.00,32.80,14.40,48.93,1015.46,2023.69,2726.05,2631.92,2970.96,600.07,589.53,45.27,0000 0000 0000 0000 000000
2016-05-21 03:27:19,0.08,1.93,0.00,25.98,30.03,32.84,14.34,48.75,1015.46,2023.18,2723.90,2630.36,2969.23,600.09,589.51,45.32,0000 0000 0000 0000 000000
2016-05-21 03:32:20,0.13,1.93,0.00,26.02,30.07,32.88,14.30,48.89,1015.45,2023.02,2721.68,2628.71,2967.41,599.73,589.08,45.37,0000 0000 0000 0000 000000
2016-05-21 03:37:21,0.14,1.94,0.00,26.07,30.11,32.91,14.35,48.79,1015.43,2023.00,2719.39,2626.96,2965.51,600.31,589.40,45.42,0000 0000 0000 0000 000000
2016-05-21 03:42:23,0.13,1.95,0.00,26.11,30.14,32.95,14.37,48.81,1015.43,2023.00,2717.08,2625.27,2963.63,599.84,588.96,45.47,0000 0000 0000 0000 000000
2016-05-21 03:47:24,0.13,1.96,0.00,26.14,30.18,32.99,14.47,48.93,1015.43,2022.99,2714.91,2623.62,2961.78,600.31,589.32,45.52,0000 0000 0000 0000 000000
2016-05-21 03:52:25,0.10,1.96,0.00,26.20,30.22,33.02,14.38,48.91,1015.42,2022.93,2712.91,2622.29,2960.12,599.93,588.93,45.57,0000 0000 0000 0000 000000
2016-05-21 03:57:26,0.07,1.97,0.00,26.25,30.26,33.06,14.33,48.69,1015.48,2022.61,2711.03,2620.90,2958.58,599.85,588.77,45.62,0000 0000 0000 0000 000000
2016-05-21 04:02:28,0.07,1.97,0.00,26.28,30.30,33.10,14.32,48.68,1015.47,2022.10,2709.11,2619.51,2956.95,599.63,588.35,45.67,0000 0000 0000 0000 000000
2016-05-21 04:07:29,0.10,1.98,0.00,26.33,30.33,33.14,14.40,48.84,1015.40,2022.01,2707.31,2618.13,2955.51,600.31,588.97,45.72,0000 0000 0000 0000 000000
2016-05-21 04:12:30,0.10,1.98,0.00,26.36,30.37,33.19,14.28,48.62,1015.27,2022.00,2705.60,2616.86,2954.03,599.49,588.07,45.77,0000 0000 0000 0000 000000
2016-05-21 04:17:32,0.10,1.99,0.00,26.40,30.41,33.22,14.31,48.55,1015.30,2022.00,2703.95,2615.69,2952.69,599.75,588.27,45.82,0000 0000 0000 0000 000000
2016-05-21 04:22:33,0.09,1.99,0.00,26.44,30.44,33.25,14.36,48.62,1015.27,2021.97,2702.30,2614.45,2951.43,599.97,588.52,45.87,0000 0000 0000 0000 000000
2016-05-21 04:27:34,0.07,2.00,0.00,26.47,30.48,33.30,14.41,48.67,1015.35,2021.75,2700.55,2613.11,2949.87,600.44,588.83,45.92,0000 0000 0000 0000 000000
2016-05-21 04:32:35,0.06,2.00,0.00,26.52,30.51,33.33,14.37,48.72,1015.28,2021.28,2698.82,2611.88,2948.53,600.19,588.50,45.97,0000 0000 0000 0000 000000
2016-05-21 04:37:37,0.07,2.00,0.00,26.56,30.55,33.37,14.32,48.49,1015.29,2021.05,2697.23,2610.71,2947.24,600.01,588.27,46.02,0000 0000 0000 0000 000000
2016-05-21 04:42:38,0.10,2.01,0.00,26.59,30.59,33.42,14.30,48.56,1015.29,2021.01,2695.66,2609.54,2945.90,599.96,588.13,46.08,0000 0000 0000 0000 000000
2016-05-21 04:47:40,0.09,2.01,0.00,26.64,30.63,33.45,14.35,48.63,1015.24,2021.00,2693.95,2608.30,2944.59,600.08,588.11,46.13,0000 0000 0000 0000 000000
2016-05-21 04:52:41,0.08,2.02,0.00,26.67,30.66,33.48,14.31,48.67,1015.23,2020.98,2692.37,2607.05,2943.32,599.76,587.61,46.18,0000 0000 0000 0000 000000
2016-05-21 04:57:42,0.11,2.02,0.00,26.71,30.71,33.52,14.28,48.58,1015.30,2020.97,2690.67,2605.81,2941.89,599.74,587.73,46.23,0000 0000 0000 0000 000000
2016-05-21 05:02:43,0.06,2.03,0.00,26.77,30.74,33.55,14.26,48.58,1015.47,2020.66,2688.93,2604.56,2940.50,599.85,587.74,46.28,0000 0000 0000 0000 000000
2016-05-21 05:07:45,0.06,2.03,0.00,26.81,30.79,33.60,14.37,48.57,1015.50,2020.11,2687.21,2603.22,2938.98,599.83,587.73,46.33,0000 0000 0000 0000 000000
2016-05-21 05:12:47,0.11,2.03,0.00,26.84,30.83,33.64,14.33,48.48,1015.57,2020.00,2685.56,2601.88,2937.51,600.28,588.08,46.38,0000 0000 0000 0000 000000
2016-05-21 05:17:48,0.10,2.04,0.00,26.87,30.87,33.67,14.36,48.63,1015.57,2020.00,2683.77,2600.58,2936.04,600.25,587.90,46.43,0000 0000 0000 0000 000000
2016-05-21 05:22:49,0.10,2.04,0.00,26.91,30.91,33.71,14.31,48.57,1015.55,2019.98,2682.02,2599.28,2934.61,599.91,587.57,46.48,0000 0000 0000 0000 000000
2016-05-21 05:27:50,0.09,2.05,0.00,26.97,30.96,33.74,14.39,48.75,1015.56,2019.92,2680.38,2597.91,2933.12,600.25,587.73,46.53,0000 0000 0000 0000 000000
2016-05-21 05:32:51,0.05,2.05,0.00,27.00,31.00,33.79,14.32,48.64,1015.49,2019.36,2678.55,2596.59,2931.60,599.93,587.38,46.58,0000 0000 0000 0000 000000
2016-05-21 05:37:52,0.08,2.06,0.00,27.04,31.05,33.82,14.34,48.58,1015.51,2019.03,2676.79,2595.22,2930.11,600.44,587.62,46.63,0000 0000 0000 0000 000000
2016-05-21 05:42:54,0.11,2.06,0.00,27.07,31.09,33.86,14.32,48.67,1015.56,2019.00,2675.07,2593.90,2928.63,600.35,587.68,46.68,0000 0000 0000 0000 000000
2016-05-21 05:47:55,0.10,2.07,0.00,27.09,31.14,33.89,14.24,48.63,1015.57,2019.00,2673.41,2592.63,2927.27,599.80,587.04,46.73,0000 0000 0000 0000 000000
2016-05-21 05:52:56,0.10,2.07,0.00,27.13,31.19,33.93,14.24,48.63,1015.58,2018.94,2671.75,2591.38,2925.83,599.61,586.86,46.78,0000 0000 0000 0000 000000
2016-05-21 05:57:57,0.03,2.08,0.00,27.10,31.23,33.96,14.26,48.55,1015.62,2018.52,2670.09,2590.05,2924.43,600.01,587.30,46.83,0000 0000 0000 0000 000000
2016-05-21 06:02:59,0.08,2.08,0.00,27.02,31.27,34.02,14.30,48.36,1015.61,2018.06,2668.39,2588.73,2922.98,600.15,587.63,46.88,0000 0000 0000 0000 000000
2016-05-21 06:08:00,0.10,2.08,0.00,26.97,31.31,34.05,14.37,48.56,1015.63,2018.00,2666.79,2587.64,2921.68,600.32,587.88,46.93,0000 0000 0000 0000 000000
2016-05-21 06:13:01,0.09,2.09,0.00,26.89,31.34,34.18,14.37,48.61,1015.63,2017.99,2665.18,2586.47,2920.40,600.32,588.05,46.99,0000 0000 0000 0000 000000
2016-05-21 06:18:03,0.09,2.09,0.00,26.77,31.35,34.55,14.33,48.65,1015.64,2017.99,2663.66,2585.42,2919.20,599.87,587.85,47.04,0000 0000 0000 0000 000000
2016-05-21 06:23:04,0.08,2.10,0.00,26.64,31.37,34.70,14.40,48.41,1015.64,2017.96,2662.19,2584.35,2918.05,599.74,587.98,47.09,0000 0000 0000 0000 000000
2016-05-21 06:28:06,0.08,2.10,0.00,26.54,31.36,34.65,14.39,48.63,1015.64,2017.97,2660.72,2583.44,2917.03,600.09,588.53,47.14,0000 0000 0000 0000 000000
2016-05-21 06:33:07,0.07,2.11,0.00,26.45,31.35,34.52,14.40,48.74,1015.64,2017.99,2659.45,2582.65,2916.04,600.03,588.51,47.19,0000 0000 0000 0000 000000
2016-05-21 06:38:08,0.06,2.11,0.00,26.39,31.32,34.44,14.37,48.67,1015.64,2017.98,2658.18,2581.76,2915.10,599.78,588.50,47.24,0000 0000 0000 0000 000000
2016-05-21 06:43:10,0.06,2.11,0.00,26.33,31.30,34.35,14.38,48.62,1015.64,2017.99,2656.89,2580.93,2914.15,600.00,588.84,47.29,0000 0000 0000 0000 000000
2016-05-21 06:48:11,0.07,2.12,0.00,26.29,31.26,34.28,14.43,48.57,1015.64,2017.99,2655.75,2580.08,2913.29,600.32,589.23,47.34,0000 0000 0000 0000 000000
2016-05-21 06:53:12,0.07,2.12,0.00,26.23,31.23,34.22,14.44,48.78,1015.64,2018.00,2654.58,2579.40,2912.56,599.95,588.97,47.39,0000 0000 0000 0000 000000
2016-05-21 06:58:14,0.06,2.12,0.00,26.20,31.19,34.15,14.42,49.03,1015.64,2018.01,2653.34,2578.70,2911.77,600.07,589.12,47.44,0000 0000 0000 0000 000000
2016-05-21 07:03:15,0.07,2.13,0.00,26.19,31.14,34.09,14.40,48.72,1015.61,2018.11,2652.10,2577.97,2910.90,599.79,588.89,47.49,0000 0000 0000 0000 000000
2016-05-21 07:08:16,0.14,2.13,0.00,26.17,31.09,34.03,14.41,48.73,1015.61,2018.66,2650.88,2577.17,2910.04,599.76,588.84,47.54,0000 0000 0000 0000 000000
2016-05-21 07:13:17,0.10,2.14,0.00,26.17,31.04,33.95,14.38,48.70,1015.61,2018.94,2649.54,2576.44,2909.17,600.09,589.19,47.59,0000 0000 0000 0000 000000
2016-05-21 07:18:19,0.05,2.14,0.00,26.15,30.99,33.88,14.29,48.61,1015.63,2018.99,2648.41,2575.87,2908.46,599.96,589.16,47.64,0000 0000 0000 0000 000000
2016-05-21 07:23:20,0.06,2.15,0.00,26.11,30.94,33.82,14.37,48.55,1015.62,2019.01,2647.18,2575.06,2907.70,600.22,589.54,47.69,0000 0000 0000 0000 000000
2016-05-21 07:28:21,0.08,2.15,0.00,26.11,30.89,33.75,14.34,48.44,1015.61,2019.08,2645.82,2574.28,2906.80,600.19,589.46,47.74,0000 0000 0000 0000 000000
2016-05-21 07:33:23,0.15,2.16,0.00,26.10,30.84,33.69,14.38,48.59,1015.64,2019.68,2644.42,2573.59,2905.82,600.38,589.74,47.79,0000 0000 0000 0000 000000
2016-05-21 07:38:24,0.28,2.17,0.00,26.08,30.79,33.67,14.43,48.44,1015.61,2019.97,2640.36,2571.19,2903.18,600.37,589.69,47.84,0000 0000 0000 0000 000000
2016-05-21 07:43:25,0.28,2.18,0.00,26.09,30.74,33.63,14.29,48.28,1015.56,2019.99,2635.29,2568.12,2899.64,599.83,589.13,47.89,0000 0000 0000 0000 000000
2016-05-21 07:48:26,0.24,2.20,0.00,26.10,30.69,33.60,14.39,48.33,1015.53,2020.00,2630.99,2565.48,2896.59,599.91,589.21,47.95,0000 0000 0000 0000 000000
2016-05-21 07:53:28,0.27,2.21,0.00,26.07,30.65,33.56,14.40,48.30,1015.56,2020.29,2627.04,2563.04,2893.66,600.18,589.50,48.00,0000 0000 0000 0000 000000
2016-05-21 07:58:29,0.26,2.22,0.00,26.10,30.60,33.51,14.35,48.50,1015.52,2020.84,2623.39,2560.67,2890.94,599.66,588.91,48.05,0000 0000 0000 0000 000000
2016-05-21 08:03:31,0.20,2.24,0.00,26.11,30.55,33.47,14.36,48.36,1015.48,2020.98,2619.89,2558.66,2888.30,600.04,589.22,48.10,0000 0000 0000 0000 000000
2016-05-21 08:08:31,0.15,2.24,0.00,26.10,30.50,33.42,14.29,48.47,1015.58,2020.99,2617.05,2556.99,2886.24,599.72,589.02,48.15,0000 0000 0000 0000 000000
2016-05-21 08:13:33,0.17,2.25,0.00,26.07,30.46,33.38,14.35,48.38,1015.53,2021.03,2614.32,2555.38,2884.28,599.80,589.13,48.20,0000 0000 0000 0000 000000
2016-05-21 08:18:34,0.19,2.26,0.00,26.09,30.41,33.34,14.36,48.46,1015.49,2021.19,2611.30,2553.52,2882.05,599.85,588.94,48.25,0000 0000 0000 0000 000000
2016-05-21 08:23:36,0.24,2.27,0.00,26.08,30.36,33.31,14.39,48.37,1015.43,2021.81,2608.24,2551.72,2879.85,600.11,589.31,48.30,0000 0000 0000 0000 000000
2016-05-21 08:28:37,0.18,2.28,0.00,26.07,30.31,33.27,14.42,48.39,1015.29,2021.98,2605.31,2549.88,2877.76,600.03,589.17,48.35,0000 0000 0000 0000 000000
2016-05-21 08:33:39,0.25,2.30,0.00,26.07,30.27,33.23,14.35,48.31,1015.31,2021.99,2601.31,2547.38,2874.80,599.85,589.01,48.40,0000 0000 0000 0000 000000
2016-05-21 08:38:40,0.22,2.31,0.00,26.06,30.23,33.21,14.37,48.25,1015.36,2022.00,2597.33,2544.97,2871.93,600.10,589.29,48.45,0000 0000 0000 0000 000000
2016-05-21 08:43:41,0.21,2.32,0.00,26.03,30.18,33.16,14.43,48.33,1015.53,2022.10,2593.89,2542.89,2869.32,600.36,589.75,48.50,0000 0000 0000 0000 000000
2016-05-21 08:48:42,0.30,2.33,0.00,26.03,30.14,33.12,14.39,48.33,1015.55,2022.57,2590.09,2540.55,2866.50,599.98,589.31,48.55,0000 0000 0000 0000 000000
2016-05-21 08:53:43,0.34,2.35,0.00,26.05,30.10,33.10,14.42,48.38,1015.55,2022.92,2584.82,2537.14,2862.56,599.94,589.23,48.60,0000 0000 0000 0000 000000
2016-05-21 08:58:45,0.33,2.37,0.00,26.00,30.06,33.08,14.43,48.29,1015.56,2022.99,2579.55,2533.72,2858.56,600.15,589.59,48.65,0000 0000 0000 0000 000000
2016-05-21 09:03:46,0.27,2.38,0.00,25.97,30.02,33.01,14.32,48.28,1015.47,2022.99,2574.70,2530.55,2854.79,600.19,589.71,48.70,0000 0000 0000 0000 000000
2016-05-21 09:08:47,0.21,2.39,0.00,26.00,29.99,33.02,14.32,48.16,1015.48,2023.05,2571.03,2528.36,2852.05,600.02,589.39,48.76,0000 0000 0000 0000 000000
2016-05-21 09:13:49,0.21,2.40,0.00,26.00,29.96,33.01,14.25,48.14,1015.51,2023.42,2568.18,2526.46,2849.78,599.76,589.11,48.81,0000 0000 0000 0000 000000
2016-05-21 09:18:50,0.14,2.41,0.00,25.96,29.92,32.97,14.38,48.27,1015.58,2023.89,2566.29,2525.25,2848.21,600.11,589.64,48.86,0000 0000 0000 0000 000000
2016-05-21 09:23:51,0.11,2.42,0.00,25.95,29.89,32.93,14.35,48.33,1015.60,2023.97,2564.55,2524.12,2846.69,599.99,589.50,48.91,0000 0000 0000 0000 000000
2016-05-21 09:28:52,0.11,2.43,0.00,25.95,29.87,32.93,14.39,48.32,1015.58,2023.99,2562.79,2522.96,2845.15,600.12,589.59,48.96,0000 0000 0000 0000 000000
2016-05-21 09:33:53,0.09,2.43,0.00,25.91,29.84,32.88,14.32,48.21,1015.61,2023.99,2561.12,2521.91,2843.82,599.92,589.55,49.01,0000 0000 0000 0000 000000
2016-05-21 09:38:54,0.11,2.44,0.00,25.88,29.82,32.87,14.34,48.24,1015.62,2023.99,2559.66,2520.88,2842.53,600.09,589.81,49.06,0000 0000 0000 0000 000000
2016-05-21 09:43:55,0.07,2.44,0.00,25.90,29.80,32.87,14.34,48.18,1015.62,2024.00,2558.46,2519.98,2841.31,600.01,589.54,49.11,0000 0000 0000 0000 000000
2016-05-21 09:48:57,0.10,2.45,0.00,25.90,29.77,32.84,14.35,48.29,1015.62,2024.08,2556.89,2518.99,2840.05,600.09,589.78,49.16,0000 0000 0000 0000 000000
2016-05-21 09:53:58,0.12,2.45,0.00,25.88,29.77,32.83,14.30,48.27,1015.62,2024.24,2555.43,2518.00,2838.75,599.72,589.39,49.21,0000 0000 0000 0000 000000
2016-05-21 09:58:59,0.12,2.46,0.00,25.89,29.75,32.82,14.38,48.29,1015.62,2024.57,2553.79,2516.95,2837.43,599.83,589.54,49.26,0000 0000 0000 0000 000000
2016-05-21 10:04:01,0.11,2.46,0.00,25.87,29.73,32.80,14.39,48.32,1015.63,2024.73,2552.41,2515.95,2836.09,600.41,590.11,49.31,0000 0000 0000 0000 000000
2016-05-21 10:09:02,0.10,2.47,0.00,25.84,29.72,32.80,14.49,48.38,1015.63,2024.87,2550.93,2515.03,2834.85,600.53,590.18,49.36,0000 0000 0000 0000 000000
2016-05-21 10:14:03,0.10,2.47,0.00,25.85,29.70,32.78,14.34,48.11,1015.62,2024.95,2549.58,2514.10,2833.64,599.80,589.52,49.41,0000 0000 0000 0000 000000
2016-05-21 10:19:05,0.09,2.48,0.00,25.85,29.70,32.69,14.32,48.33,1015.63,2024.98,2548.18,2513.11,2832.46,599.99,589.67,49.46,0000 0000 0000 0000 000000
2016-05-21 10:24:06,0.09,2.48,0.00,25.83,29.68,32.72,14.41,48.36,1015.59,2024.98,2546.75,2512.17,2831.28,599.72,589.46,49.51,0000 0000 0000 0000 000000
2016-05-21 10:29:08,0.08,2.49,0.00,25.82,29.67,32.73,14.37,48.32,1015.56,2024.98,2545.40,2511.33,2830.06,600.31,590.01,49.56,0000 0000 0000 0000 000000
2016-05-21 10:34:09,0.08,2.49,0.00,25.85,29.66,32.61,14.33,48.34,1015.49,2024.99,2544.13,2510.37,2828.92,599.94,589.72,49.61,0000 0000 0000 0000 000000
2016-05-21 10:39:10,0.08,2.50,0.00,25.83,29.65,32.54,14.33,48.36,1015.53,2024.99,2542.90,2509.62,2827.84,600.08,589.83,49.66,0000 0000 0000 0000 000000
2016-05-21 10:44:12,0.08,2.50,0.00,25.80,29.65,32.65,14.38,48.33,1015.49,2024.99,2541.61,2508.80,2826.71,600.08,589.88,49.72,0000 0000 0000 0000 000000
2016-05-21 10:49:13,0.08,2.51,0.00,25.82,29.63,32.51,14.26,48.35,1015.51,2024.99,2540.27,2507.90,2825.61,599.74,589.50,49.77,0000 0000 0000 0000 000000
2016-05-21 10:54:14,0.09,2.51,0.00,25.82,29.62,32.46,14.31,48.21,1015.57,2024.99,2538.76,2506.99,2824.41,599.79,589.60,49.82,0000 0000 0000 0000 000000
2016-05-21 10:59:16,0.08,2.51,0.00,25.81,29.62,32.52,14.35,48.20,1015.58,2024.99,2537.52,2506.12,2823.23,599.95,589.79,49.87,0000 0000 0000 0000 000000
2016-05-21 11:04:17,0.08,2.52,0.00,25.81,29.60,32.52,14.37,48.37,1015.59,2025.00,2536.27,2505.28,2822.14,600.19,590.02,49.92,0000 0000 0000 0000 000000
2016-05-21 11:09:18,0.06,2.52,0.00,25.82,29.60,32.44,14.36,48.28,1015.56,2025.01,2535.25,2504.70,2821.20,600.03,589.82,49.97,0000 0000 0000 0000 000000
2016-05-21 11:14:19,0.06,2.53,0.00,25.81,29.58,32.42,14.24,48.33,1015.57,2025.02,2534.19,2504.02,2820.25,599.43,589.23,50.02,0000 0000 0000 0000 000000
2016-05-21 11:19:20,0.08,2.53,0.00,25.80,29.57,32.42,14.27,48.27,1015.42,2025.02,2533.13,2503.32,2819.33,599.58,589.45,50.07,0000 0000 0000 0000 000000
2016-05-21 11:24:21,0.06,2.53,0.00,25.80,29.56,32.38,14.34,48.34,1015.26,2025.04,2531.97,2502.75,2818.34,600.20,589.88,50.12,0000 0000 0000 0000 000000
2016-05-21 11:29:22,0.06,2.54,0.00,25.80,29.55,32.34,14.38,48.33,1015.22,2025.07,2530.94,2502.02,2817.39,600.13,589.96,50.17,0000 0000 0000 0000 000000
2016-05-21 11:34:23,0.07,2.54,0.00,25.80,29.55,32.37,14.32,48.17,1015.18,2025.09,2529.92,2501.34,2816.41,599.69,589.32,50.22,0000 0000 0000 0000 000000
2016-05-21 11:39:25,0.06,2.54,0.00,25.80,29.52,32.35,14.33,48.25,1015.17,2025.15,2528.94,2500.77,2815.51,599.75,589.33,50.27,0000 0000 0000 0000 000000
2016-05-21 11:44:26,0.07,2.55,0.00,25.79,29.52,32.32,14.36,48.16,1015.16,2025.12,2528.04,2500.04,2814.59,599.95,589.48,50.32,0000 0000 0000 0000 000000
2016-05-21 11:49:28,0.07,2.55,0.00,25.77,29.50,32.33,14.35,48.42,1015.16,2025.21,2527.12,2499.46,2813.67,599.49,589.25,50.37,0000 0000 0000 0000 000000
2016-05-21 11:54:29,0.07,2.56,0.00,25.77,29.50,32.33,14.37,48.49,1015.15,2025.43,2526.10,2498.97,2812.81,600.20,589.82,50.42,0000 0000 0000 0000 000000
2016-05-21 11:59:31,0.08,2.56,0.00,25.74,29.48,32.30,14.36,48.35,1015.15,2025.54,2525.16,2498.18,2811.88,600.29,590.16,50.47,0000 0000 0000 0000 000000
2016-05-21 12:04:32,0.06,2.56,0.00,25.73,29.47,32.31,14.34,48.28,1015.16,2025.73,2524.25,2497.71,2810.92,599.98,589.67,50.52,0000 0000 0000 0000 000000
2016-05-21 12:09:33,0.07,2.57,0.00,25.74,29.46,32.29,14.30,48.21,1015.15,2025.76,2523.27,2497.01,2809.90,599.79,589.49,50.57,0000 0000 0000 0000 000000
2016-05-21 12:14:35,0.09,2.57,0.00,25.71,29.45,32.29,14.39,48.31,1015.15,2025.86,2522.17,2496.34,2808.96,600.11,589.89,50.62,0000 0000 0000 0000 000000
2016-05-21 12:19:36,0.03,2.57,0.00,25.70,29.45,32.30,14.36,48.20,1015.15,2025.84,2521.29,2495.85,2807.98,600.34,590.16,50.68,0000 0000 0000 0000 000000
2016-05-21 12:24:37,0.08,2.58,0.00,25.70,29.43,32.27,14.34,48.21,1015.15,2025.90,2520.25,2495.07,2806.95,599.74,589.58,50.73,0000 0000 0000 0000 000000
2016-05-21 12:29:39,0.06,2.58,0.00,25.69,29.42,32.25,14.26,48.05,1015.15,2025.95,2519.27,2494.75,2805.97,599.95,589.77,50.78,0000 0000 0000 0000 000000
2016-05-21 12:34:40,0.06,2.59,0.00,25.68,29.42,32.26,14.41,48.41,1015.15,2025.98,2518.28,2494.03,2804.98,600.26,590.05,50.83,0000 0000 0000 0000 000000
2016-05-21 12:39:41,0.08,2.59,0.00,25.67,29.41,32.25,14.30,48.19,1015.15,2025.97,2517.22,2493.27,2803.87,600.17,590.06,50.88,0000 0000 0000 0000 000000
2016-05-21 12:44:42,0.06,2.59,0.00,25.65,29.40,32.26,14.30,48.17,1015.15,2025.98,2516.19,2492.77,2802.85,599.96,589.77,50.93,0000 0000 0000 0000 000000
2016-05-21 12:49:43,0.06,2.60,0.00,25.64,29.40,32.26,14.36,48.19,1015.14,2025.97,2515.34,2492.05,2801.84,599.77,589.74,50.98,0000 0000 0000 0000 000000
2016-05-21 12:54:45,0.07,2.60,0.00,25.62,29.40,32.25,14.31,48.19,1015.11,2025.96,2514.25,2491.39,2800.82,599.91,589.88,51.03,0000 0000 0000 0000 000000